This is the latest recevied weather packets stored in our database for station/object DK6MAX-13. If no packets are shown the sender has not sent any weather packets the latest 10 day(s).
| Time | Temp. | Humidity | Pressure | Rain* | Wind** | Luminosity | Snow |
|---|---|---|---|---|---|---|---|
| 1777182288 | 6.11° C | 73% | 1024.8 hPa | - | - | - | - |
| 1777182287 | 6.11° C | 74% | 1024.9 hPa | - | - | - | - |
| 1777182228 | 6.11° C | 74% | 1024.9 hPa | - | - | - | - |
| 1777182227 | 6.11° C | 73% | 1024.9 hPa | - | - | - | - |
| 1777182168 | 6.11° C | 73% | 1024.8 hPa | - | - | - | - |
| 1777182168 | 6.11° C | 73% | 1024.9 hPa | - | - | - | - |
| 1777182167 | 6.11° C | 78% | 1024.8 hPa | - | - | - | - |
| 1777182108 | 6.67° C | 78% | 1024.9 hPa | - | - | - | - |
| 1777182108 | 6.67° C | 78% | 1024.8 hPa | - | - | - | - |
| 1777182107 | 6.67° C | 79% | 1024.9 hPa | - | - | - | - |
| 1777182048 | 6.67° C | 79% | 1024.9 hPa | - | - | - | - |
| 1777182047 | 6.67° C | 80% | 1024.9 hPa | - | - | - | - |
| 1777181988 | 6.11° C | 80% | 1024.9 hPa | - | - | - | - |
| 1777181987 | 6.11° C | 82% | 1024.9 hPa | - | - | - | - |
| 1777181928 | 5° C | 82% | 1025 hPa | - | - | - | - |
| 1777181928 | 5° C | 82% | 1024.9 hPa | - | - | - | - |
| 1777181928 | 5° C | 83% | 1025 hPa | - | - | - | - |
| 1777181868 | 4.44° C | 83% | 1024.9 hPa | - | - | - | - |
| 1777181868 | 4.44° C | 83% | 1025 hPa | - | - | - | - |
| 1777181867 | 4.44° C | 77% | 1024.9 hPa | - | - | - | - |
| 1777181808 | 5.56° C | 77% | 1024.9 hPa | - | - | - | - |
| 1777181808 | 5.56° C | 77% | 1024.8 hPa | - | - | - | - |
| 1777181808 | 5.56° C | 76% | 1024.8 hPa | - | - | - | - |
| 1777181748 | 6.11° C | 76% | 1024.8 hPa | - | - | - | - |
| 1777181748 | 6.11° C | 78% | 1024.8 hPa | - | - | - | - |
* Rain since midnight (hover to see other rain measurements)
** Current wind speed in m/s (hover to see current wind gust speed)